Language: 


Des rapports , des résumés tant et plus, au choix de chacun....


Données Historiques de Météogheer
Journalier Rapport pour Janvier 3, 2018 Unitée:  Métrique    Impériale   Les deux
Suivant Jour »
Journalier Hebdomadaire Mensuel Annuel Sur mesure
  Max: Min: Moyenne:
Température: 12.5 °C 7.8 °C 9.8 °C
Point de rosée: 13.0 °C 3.0 °C 6.2 °C
Humidité: 98% 63% 77%
Vent: 63.4km/h 11.1km/h 30.7km/h
Rafales: 73.9km/h - -
Vent- - WSW
Pression: 1001.9 hPa 988.0 hPa -
Pluie: 9.4 mm    
Historical Graphs
 
 
Données tabulaires pour Janvier 3, 2018
Heure Température Point de rosée Pression Vent Vent Rafales Humidité Pluie Taux (Horaire) Conditions
00:03 10.8 °C 10.0 °C 996.2 hPa South 11.9 km/h 17.7 km/h 97% 0.0 mm
00:04 10.8 °C 10.0 °C 996.2 hPa South 13.7 km/h 17.7 km/h 97% 0.0 mm
00:09 10.9 °C 11.0 °C 996.2 hPa WSW 14.0 km/h 23.8 km/h 97% 0.0 mm
00:14 11.0 °C 11.0 °C 996.8 hPa SSW 13.7 km/h 24.8 km/h 97% 0.0 mm
00:20 11.1 °C 11.0 °C 996.8 hPa WSW 13.7 km/h 24.8 km/h 97% 0.0 mm
00:25 11.1 °C 11.0 °C 996.8 hPa SW 23.8 km/h 31.4 km/h 97% 0.0 mm
00:28 11.1 °C 11.0 °C 995.1 hPa SW 16.9 km/h 31.4 km/h 97% 0.0 mm
00:33 11.1 °C 11.0 °C 995.1 hPa SSW 11.1 km/h 23.8 km/h 97% 0.0 mm
00:34 11.1 °C 11.0 °C 995.1 hPa SW 17.2 km/h 23.8 km/h 97% 0.0 mm
00:40 11.0 °C 11.0 °C 995.1 hPa SSW 15.8 km/h 24.8 km/h 98% 0.8 mm
00:41 11.0 °C 11.0 °C 995.1 hPa SW 14.0 km/h 24.8 km/h 98% 1.0 mm
00:42 11.0 °C 11.0 °C 995.1 hPa SW 27.7 km/h 27.7 km/h 98% 1.0 mm
00:47 10.9 °C 11.0 °C 995.1 hPa SW 16.9 km/h 27.7 km/h 98% 1.3 mm
00:48 10.9 °C 11.0 °C 995.1 hPa SSW 19.8 km/h 27.7 km/h 98% 1.3 mm
00:53 10.9 °C 11.0 °C 995.1 hPa SW 19.8 km/h 24.8 km/h 98% 1.5 mm
00:55 10.9 °C 11.0 °C 995.1 hPa SSW 23.0 km/h 32.8 km/h 98% 1.5 mm
01:01 10.9 °C 11.0 °C 995.1 hPa SSW 14.0 km/h 32.8 km/h 98% 1.8 mm
01:04 10.9 °C 11.0 °C 995.1 hPa SSW 16.6 km/h 32.8 km/h 98% 2.3 mm
01:10 10.9 °C 11.0 °C 995.1 hPa WSW 15.1 km/h 25.6 km/h 98% 2.5 mm
01:12 10.9 °C 11.0 °C 994.1 hPa SSW 14.3 km/h 25.6 km/h 98% 2.5 mm
01:17 10.9 °C 11.0 °C 994.1 hPa SW 20.1 km/h 25.6 km/h 98% 2.8 mm
01:21 11.0 °C 11.0 °C 994.1 hPa SSW 24.8 km/h 37.5 km/h 98% 2.8 mm
01:26 11.0 °C 11.0 °C 993.1 hPa SSW 14.0 km/h 37.5 km/h 98% 2.8 mm
01:36 11.2 °C 11.0 °C 993.1 hPa SSW 15.8 km/h 30.9 km/h 98% 3.3 mm
01:39 11.2 °C 11.0 °C 993.1 hPa SSW 25.3 km/h 36.0 km/h 98% 3.0 mm
01:42 11.3 °C 11.0 °C 992.1 hPa SW 19.1 km/h 36.0 km/h 98% 2.8 mm
01:46 11.3 °C 11.0 °C 992.1 hPa WSW 28.0 km/h 36.0 km/h 98% 2.8 mm
01:51 11.4 °C 11.0 °C 992.1 hPa SW 33.1 km/h 38.5 km/h 98% 2.5 mm
01:53 11.4 °C 11.0 °C 992.1 hPa WSW 28.0 km/h 38.5 km/h 98% 2.5 mm
01:58 11.5 °C 12.0 °C 991.1 hPa SSW 27.7 km/h 37.5 km/h 98% 2.3 mm
02:00 11.6 °C 12.0 °C 991.1 hPa SW 20.6 km/h 37.5 km/h 98% 2.3 mm
02:05 11.7 °C 12.0 °C 991.1 hPa WSW 16.3 km/h 39.6 km/h 98% 1.8 mm
02:06 11.7 °C 12.0 °C 991.1 hPa WSW 24.5 km/h 39.6 km/h 98% 1.5 mm
02:13 11.7 °C 12.0 °C 991.1 hPa SSW 29.9 km/h 39.6 km/h 98% 1.5 mm
02:14 11.8 °C 12.0 °C 991.1 hPa SSW 25.6 km/h 36.7 km/h 98% 1.5 mm
02:20 11.9 °C 12.0 °C 991.1 hPa SW 41.7 km/h 41.7 km/h 98% 1.5 mm
02:22 12.0 °C 12.0 °C 991.1 hPa WSW 28.0 km/h 41.7 km/h 98% 1.5 mm
02:28 12.0 °C 12.0 °C 990.1 hPa WSW 25.3 km/h 41.7 km/h 98% 1.3 mm
02:29 12.0 °C 12.0 °C 990.1 hPa WSW 39.6 km/h 41.7 km/h 98% 1.3 mm
02:33 12.1 °C 12.0 °C 990.1 hPa WSW 42.2 km/h 42.2 km/h 98% 0.8 mm
02:38 12.2 °C 12.0 °C 990.1 hPa WSW 30.9 km/h 42.2 km/h 98% 0.5 mm
02:40 12.2 °C 12.0 °C 990.1 hPa WSW 19.5 km/h 42.2 km/h 98% 0.5 mm
02:47 12.2 °C 12.0 °C 989.1 hPa WSW 26.7 km/h 42.8 km/h 98% 1.3 mm
02:48 12.2 °C 12.0 °C 989.1 hPa WSW 24.8 km/h 42.8 km/h 98% 1.5 mm
02:53 12.3 °C 13.0 °C 989.1 hPa WSW 28.5 km/h 44.6 km/h 98% 2.5 mm
02:57 12.3 °C 13.0 °C 989.1 hPa WSW 29.1 km/h 44.6 km/h 98% 3.0 mm
03:03 12.2 °C 12.0 °C 989.1 hPa West 28.0 km/h 36.0 km/h 98% 3.8 mm
03:05 12.2 °C 12.0 °C 989.1 hPa WSW 28.5 km/h 36.0 km/h 98% 3.8 mm
03:10 12.4 °C 13.0 °C 989.1 hPa West 42.2 km/h 60.2 km/h 98% 3.8 mm
03:12 12.5 °C 13.0 °C 989.1 hPa West 32.3 km/h 63.4 km/h 98% 4.1 mm
03:16 12.5 °C 13.0 °C 989.1 hPa WSW 48.3 km/h 63.4 km/h 98% 4.3 mm
03:21 12.4 °C 13.0 °C 989.1 hPa West 47.5 km/h 56.8 km/h 98% 4.6 mm
03:23 12.4 °C 13.0 °C 989.1 hPa West 49.7 km/h 56.8 km/h 98% 4.6 mm
03:28 12.3 °C 12.0 °C 989.1 hPa WNW 38.5 km/h 66.9 km/h 95% 4.6 mm
03:32 12.2 °C 11.0 °C 989.1 hPa West 39.6 km/h 66.9 km/h 93% 4.6 mm
03:37 12.0 °C 11.0 °C 989.1 hPa West 40.4 km/h 73.9 km/h 91% 4.6 mm
03:38 11.9 °C 11.0 °C 989.1 hPa West 37.0 km/h 73.9 km/h 91% 4.6 mm
03:39 11.9 °C 11.0 °C 989.1 hPa West 46.0 km/h 73.9 km/h 91% 4.6 mm
03:48 11.8 °C 10.0 °C 989.1 hPa West 33.1 km/h 46.0 km/h 91% 3.8 mm
03:50 11.7 °C 10.0 °C 989.1 hPa WSW 38.1 km/h 49.2 km/h 91% 3.3 mm
03:55 11.7 °C 10.0 °C 989.1 hPa West 25.9 km/h 49.2 km/h 91% 2.5 mm
04:01 11.7 °C 10.0 °C 991.1 hPa West 43.1 km/h 45.1 km/h 90% 1.5 mm
04:07 11.7 °C 10.0 °C 991.1 hPa West 30.2 km/h 49.2 km/h 88% 1.5 mm
04:08 11.7 °C 10.0 °C 991.1 hPa West 36.4 km/h 49.2 km/h 87% 1.5 mm
04:14 11.7 °C 9.0 °C 989.1 hPa WSW 30.9 km/h 51.5 km/h 86% 0.8 mm
04:15 11.6 °C 9.0 °C 989.1 hPa West 37.5 km/h 51.5 km/h 86% 0.8 mm
04:20 11.7 °C 9.0 °C 989.1 hPa West 39.3 km/h 51.5 km/h 86% 0.3 mm
04:25 11.7 °C 9.0 °C 989.1 hPa WSW 37.8 km/h 52.1 km/h 85% 0.3 mm
04:30 11.6 °C 9.0 °C 990.1 hPa WSW 52.6 km/h 52.6 km/h 85% 0.3 mm
04:31 11.6 °C 9.0 °C 990.1 hPa West 38.1 km/h 52.6 km/h 85% 0.3 mm
04:36 11.5 °C 9.0 °C 990.1 hPa West 45.7 km/h 55.3 km/h 83% 0.3 mm
04:40 11.5 °C 9.0 °C 990.1 hPa WSW 42.5 km/h 55.3 km/h 81% 0.3 mm
04:44 11.4 °C 8.0 °C 990.1 hPa WSW 36.7 km/h 55.3 km/h 80% 0.3 mm
04:49 11.3 °C 8.0 °C 990.1 hPa West 36.7 km/h 51.5 km/h 79% 0.0 mm
04:51 11.3 °C 8.0 °C 990.1 hPa WSW 47.1 km/h 48.6 km/h 79% 0.0 mm
04:56 11.3 °C 8.0 °C 990.1 hPa WSW 31.4 km/h 47.9 km/h 79% 0.0 mm
04:59 11.3 °C 8.0 °C 990.1 hPa West 34.3 km/h 47.9 km/h 79% 0.0 mm
05:04 11.3 °C 8.0 °C 990.1 hPa West 36.7 km/h 49.7 km/h 79% 0.0 mm
05:09 11.3 °C 8.0 °C 990.1 hPa WSW 28.0 km/h 60.5 km/h 80% 0.0 mm
05:10 11.3 °C 8.0 °C 990.1 hPa West 43.9 km/h 60.5 km/h 80% 0.0 mm
05:15 11.3 °C 8.0 °C 990.1 hPa WSW 44.6 km/h 56.8 km/h 79% 0.0 mm
05:20 11.3 °C 8.0 °C 990.1 hPa West 39.3 km/h 60.5 km/h 77% 0.0 mm
05:21 11.3 °C 7.0 °C 990.1 hPa WSW 37.8 km/h 60.5 km/h 76% 0.0 mm
05:26 11.2 °C 7.0 °C 988.0 hPa West 37.0 km/h 60.5 km/h 75% 0.0 mm
05:28 11.1 °C 7.0 °C 988.0 hPa WSW 45.7 km/h 49.2 km/h 76% 0.0 mm
05:33 11.1 °C 7.0 °C 988.0 hPa WSW 44.2 km/h 52.1 km/h 75% 0.0 mm
05:38 11.0 °C 7.0 °C 988.0 hPa WSW 43.9 km/h 52.1 km/h 74% 0.0 mm
05:40 11.0 °C 6.0 °C 988.0 hPa WSW 44.2 km/h 45.7 km/h 73% 0.0 mm
05:45 10.9 °C 6.0 °C 990.1 hPa WSW 41.0 km/h 48.6 km/h 71% 0.0 mm
05:46 10.9 °C 6.0 °C 990.1 hPa West 47.9 km/h 48.6 km/h 70% 0.0 mm
05:51 10.8 °C 5.0 °C 990.1 hPa WSW 63.4 km/h 63.4 km/h 65% 0.0 mm
05:53 10.8 °C 4.0 °C 990.1 hPa West 38.9 km/h 63.4 km/h 64% 0.0 mm
05:58 10.7 °C 4.0 °C 989.1 hPa West 37.0 km/h 63.4 km/h 64% 0.0 mm
05:59 10.7 °C 4.0 °C 989.1 hPa WSW 47.1 km/h 63.4 km/h 64% 0.0 mm
06:01 10.7 °C 4.0 °C 989.1 hPa WSW 59.7 km/h 59.7 km/h 63% 0.0 mm
06:04 10.6 °C 4.0 °C 989.1 hPa West 28.0 km/h 60.8 km/h 64% 0.0 mm
06:09 10.6 °C 4.0 °C 989.1 hPa WSW 49.2 km/h 60.8 km/h 63% 0.0 mm
06:10 10.6 °C 4.0 °C 989.1 hPa WSW 39.6 km/h 60.8 km/h 63% 0.0 mm
06:15 10.4 °C 4.0 °C 989.1 hPa West 59.7 km/h 59.7 km/h 64% 0.0 mm
06:16 10.4 °C 4.0 °C 989.1 hPa SW 36.0 km/h 59.7 km/h 64% 0.0 mm
06:17 10.4 °C 4.0 °C 989.1 hPa WSW 41.4 km/h 59.7 km/h 64% 0.0 mm
06:22 10.3 °C 4.0 °C 989.1 hPa West 42.8 km/h 59.7 km/h 65% 0.0 mm
06:24 10.3 °C 4.0 °C 989.1 hPa West 45.7 km/h 59.7 km/h 65% 0.0 mm
06:29 10.3 °C 4.0 °C 990.1 hPa West 46.5 km/h 55.0 km/h 65% 0.0 mm
06:30 10.3 °C 4.0 °C 990.1 hPa West 42.2 km/h 55.0 km/h 65% 0.0 mm
06:35 10.3 °C 4.0 °C 990.1 hPa West 22.4 km/h 49.2 km/h 66% 0.0 mm
06:38 10.2 °C 5.0 °C 990.1 hPa WSW 24.5 km/h 49.2 km/h 68% 0.0 mm
06:43 9.2 °C 5.0 °C 991.1 hPa West 38.1 km/h 51.5 km/h 72% 0.0 mm
06:44 9.0 °C 4.0 °C 991.1 hPa SSW 24.8 km/h 51.5 km/h 71% 0.0 mm
06:50 8.4 °C 4.0 °C 991.1 hPa West 16.9 km/h 51.5 km/h 73% 0.0 mm
06:52 8.2 °C 4.0 °C 991.1 hPa West 31.7 km/h 38.1 km/h 74% 0.0 mm
06:57 8.0 °C 4.0 °C 990.1 hPa West 23.3 km/h 37.5 km/h 76% 0.0 mm
06:58 8.0 °C 4.0 °C 990.1 hPa WSW 36.4 km/h 37.5 km/h 76% 0.0 mm
07:02 7.9 °C 4.0 °C 990.1 hPa West 17.2 km/h 40.7 km/h 78% 0.0 mm
07:04 7.9 °C 4.0 °C 990.1 hPa WNW 20.9 km/h 40.7 km/h 78% 0.0 mm
07:09 7.9 °C 5.0 °C 990.1 hPa WNW 13.0 km/h 40.7 km/h 79% 0.0 mm
07:12 7.9 °C 5.0 °C 990.1 hPa West 19.8 km/h 27.7 km/h 80% 0.0 mm
07:14 7.9 °C 5.0 °C 990.1 hPa West 28.5 km/h 28.5 km/h 80% 0.0 mm
07:19 7.9 °C 5.0 °C 990.1 hPa West 32.0 km/h 32.0 km/h 81% 0.0 mm
07:20 7.9 °C 5.0 °C 990.1 hPa West 24.8 km/h 32.0 km/h 81% 0.0 mm
07:25 7.9 °C 5.0 °C 990.1 hPa WSW 27.0 km/h 35.2 km/h 81% 0.0 mm
07:30 7.8 °C 5.0 °C 990.1 hPa West 17.7 km/h 35.2 km/h 82% 0.0 mm
07:31 7.8 °C 5.0 °C 990.1 hPa West 20.6 km/h 35.2 km/h 82% 0.0 mm
07:32 7.8 °C 5.0 °C 990.1 hPa West 16.6 km/h 35.2 km/h 82% 0.0 mm
07:36 7.9 °C 5.0 °C 990.1 hPa WNW 38.1 km/h 38.1 km/h 82% 0.0 mm
07:41 8.2 °C 5.0 °C 991.1 hPa WSW 33.1 km/h 50.4 km/h 78% 0.0 mm
07:42 8.3 °C 5.0 °C 991.1 hPa West 39.6 km/h 50.4 km/h 78% 0.0 mm
07:47 8.4 °C 5.0 °C 991.1 hPa WSW 38.5 km/h 50.4 km/h 77% 0.0 mm
07:48 8.5 °C 5.0 °C 991.1 hPa WSW 38.9 km/h 50.4 km/h 76% 0.0 mm
07:53 8.6 °C 5.0 °C 991.1 hPa West 28.5 km/h 51.8 km/h 76% 0.0 mm
07:58 8.7 °C 5.0 °C 991.1 hPa West 36.7 km/h 51.8 km/h 76% 0.0 mm
08:00 8.7 °C 5.0 °C 991.1 hPa West 31.7 km/h 51.8 km/h 76% 0.0 mm
08:05 8.7 °C 5.0 °C 991.1 hPa West 33.5 km/h 52.1 km/h 75% 0.0 mm
08:10 8.8 °C 4.0 °C 991.1 hPa West 37.8 km/h 53.3 km/h 71% 0.0 mm
08:13 8.9 °C 4.0 °C 991.1 hPa WSW 47.9 km/h 53.3 km/h 70% 0.0 mm
08:18 8.9 °C 4.0 °C 991.1 hPa West 37.5 km/h 53.3 km/h 70% 0.0 mm
08:19 8.9 °C 4.0 °C 991.1 hPa West 41.7 km/h 52.6 km/h 70% 0.0 mm
08:22 8.9 °C 4.0 °C 991.1 hPa WSW 29.1 km/h 52.6 km/h 70% 0.0 mm
08:27 8.8 °C 4.0 °C 992.1 hPa West 51.2 km/h 51.2 km/h 71% 0.0 mm
08:32 8.8 °C 4.0 °C 992.1 hPa West 20.1 km/h 51.5 km/h 68% 0.0 mm
08:36 8.8 °C 4.0 °C 992.1 hPa West 28.0 km/h 51.5 km/h 68% 0.0 mm
08:39 8.7 °C 3.0 °C 992.1 hPa WSW 39.3 km/h 51.5 km/h 69% 0.0 mm
08:42 8.6 °C 3.0 °C 993.1 hPa West 31.4 km/h 46.8 km/h 69% 0.0 mm
08:47 8.5 °C 3.0 °C 993.1 hPa WSW 24.8 km/h 44.6 km/h 69% 0.0 mm
08:50 8.5 °C 3.0 °C 993.1 hPa WNW 31.7 km/h 51.8 km/h 69% 0.0 mm
08:55 8.4 °C 3.0 °C 993.1 hPa West 44.2 km/h 52.6 km/h 70% 0.0 mm
09:01 8.5 °C 3.0 °C 993.1 hPa West 53.3 km/h 53.3 km/h 69% 0.0 mm
09:06 8.4 °C 3.0 °C 993.1 hPa WSW 28.0 km/h 53.3 km/h 70% 0.0 mm
09:10 8.4 °C 3.0 °C 993.1 hPa West 36.7 km/h 53.6 km/h 70% 0.0 mm
09:15 8.5 °C 3.0 °C 993.1 hPa West 33.5 km/h 58.2 km/h 69% 0.0 mm
09:16 8.5 °C 3.0 °C 993.1 hPa West 19.8 km/h 58.2 km/h 69% 0.0 mm
09:18 8.4 °C 3.0 °C 993.1 hPa West 25.9 km/h 58.2 km/h 70% 0.0 mm
09:24 8.5 °C 3.0 °C 993.1 hPa West 35.6 km/h 52.6 km/h 69% 0.0 mm
09:27 8.5 °C 3.0 °C 993.1 hPa West 20.1 km/h 52.9 km/h 69% 0.0 mm
09:30 8.5 °C 3.0 °C 993.1 hPa West 28.5 km/h 52.9 km/h 69% 0.0 mm
09:34 8.5 °C 3.0 °C 993.1 hPa West 20.9 km/h 52.9 km/h 69% 0.0 mm
09:36 8.5 °C 3.0 °C 993.1 hPa WSW 44.6 km/h 52.9 km/h 69% 0.0 mm
09:41 8.5 °C 3.0 °C 994.1 hPa WSW 44.2 km/h 44.6 km/h 69% 0.0 mm
09:46 8.5 °C 3.0 °C 994.1 hPa West 36.7 km/h 44.6 km/h 69% 0.0 mm
09:49 8.5 °C 3.0 °C 994.1 hPa WSW 41.7 km/h 51.8 km/h 69% 0.0 mm
09:54 8.6 °C 3.0 °C 994.1 hPa West 39.3 km/h 56.5 km/h 69% 0.0 mm
09:57 8.6 °C 3.0 °C 994.1 hPa WSW 21.6 km/h 56.5 km/h 68% 0.0 mm
10:02 8.6 °C 3.0 °C 994.1 hPa West 43.6 km/h 48.9 km/h 69% 0.0 mm
10:07 8.7 °C 3.0 °C 994.1 hPa WSW 38.1 km/h 48.9 km/h 69% 0.0 mm
10:08 8.7 °C 4.0 °C 994.1 hPa West 45.1 km/h 48.9 km/h 70% 0.0 mm
10:13 8.8 °C 4.0 °C 994.1 hPa West 37.0 km/h 50.0 km/h 70% 0.0 mm
10:19 8.9 °C 4.0 °C 994.1 hPa West 39.6 km/h 50.0 km/h 70% 0.0 mm
10:20 8.9 °C 4.0 °C 994.1 hPa West 51.5 km/h 51.5 km/h 70% 0.0 mm
10:22 9.0 °C 4.0 °C 994.1 hPa West 38.9 km/h 51.5 km/h 70% 0.0 mm
10:27 9.0 °C 4.0 °C 995.1 hPa West 38.9 km/h 51.5 km/h 70% 0.0 mm
10:32 8.9 °C 4.0 °C 995.1 hPa West 51.8 km/h 52.1 km/h 70% 0.0 mm
10:33 8.9 °C 4.0 °C 995.1 hPa WSW 47.5 km/h 52.1 km/h 70% 0.0 mm
10:38 9.1 °C 4.0 °C 995.1 hPa West 47.9 km/h 52.1 km/h 70% 0.0 mm
10:43 9.3 °C 4.0 °C 995.1 hPa West 36.4 km/h 52.6 km/h 68% 0.0 mm
10:48 9.3 °C 4.0 °C 995.1 hPa West 36.4 km/h 52.6 km/h 68% 0.0 mm
10:52 9.3 °C 4.0 °C 995.1 hPa WSW 42.2 km/h 52.1 km/h 68% 0.0 mm
10:57 9.3 °C 4.0 °C 995.1 hPa WSW 50.0 km/h 52.1 km/h 67% 0.0 mm
11:02 9.3 °C 4.0 °C 995.1 hPa West 48.3 km/h 50.0 km/h 68% 0.0 mm
11:05 9.3 °C 4.0 °C 995.1 hPa WSW 32.8 km/h 55.3 km/h 67% 0.0 mm
11:08 9.3 °C 4.0 °C 995.1 hPa West 31.7 km/h 56.5 km/h 67% 0.0 mm
11:11 9.4 °C 4.0 °C 996.2 hPa WSW 40.7 km/h 56.5 km/h 67% 0.0 mm
11:14 9.4 °C 4.0 °C 996.2 hPa West 38.5 km/h 56.5 km/h 68% 0.0 mm
11:17 9.5 °C 4.0 °C 996.2 hPa West 45.7 km/h 52.1 km/h 68% 0.0 mm
11:22 9.5 °C 4.0 °C 996.2 hPa West 36.0 km/h 52.1 km/h 68% 0.0 mm
11:23 9.5 °C 4.0 °C 996.2 hPa WSW 31.4 km/h 52.1 km/h 68% 0.0 mm
11:28 9.5 °C 4.0 °C 996.8 hPa West 28.5 km/h 45.1 km/h 69% 0.0 mm
11:29 9.5 °C 4.0 °C 996.8 hPa WSW 26.2 km/h 45.1 km/h 68% 0.0 mm
11:30 9.5 °C 4.0 °C 996.8 hPa WSW 24.5 km/h 45.1 km/h 68% 0.0 mm
11:35 9.5 °C 4.0 °C 996.8 hPa West 36.0 km/h 46.5 km/h 69% 0.0 mm
11:40 9.6 °C 4.0 °C 996.8 hPa WNW 38.9 km/h 46.5 km/h 67% 0.0 mm
11:43 9.7 °C 4.0 °C 996.8 hPa WNW 38.9 km/h 47.5 km/h 68% 0.0 mm
11:44 9.7 °C 4.0 °C 996.8 hPa WSW 37.0 km/h 47.5 km/h 68% 0.0 mm
11:49 9.7 °C 4.0 °C 996.8 hPa WSW 48.3 km/h 48.3 km/h 67% 0.0 mm
11:50 9.7 °C 4.0 °C 996.8 hPa WNW 20.6 km/h 48.3 km/h 67% 0.0 mm
11:58 9.7 °C 4.0 °C 996.8 hPa WSW 37.5 km/h 54.1 km/h 65% 0.0 mm
12:04 9.7 °C 4.0 °C 996.8 hPa West 35.6 km/h 59.1 km/h 66% 0.0 mm
12:08 9.7 °C 3.0 °C 996.8 hPa WNW 23.3 km/h 59.1 km/h 64% 0.0 mm
12:13 9.7 °C 4.0 °C 996.8 hPa West 28.8 km/h 52.1 km/h 66% 0.0 mm
12:18 9.7 °C 4.0 °C 996.8 hPa West 36.4 km/h 48.9 km/h 66% 0.0 mm
12:19 9.8 °C 4.0 °C 996.8 hPa West 25.6 km/h 48.9 km/h 67% 0.0 mm
12:24 9.7 °C 4.0 °C 996.8 hPa WNW 20.9 km/h 45.7 km/h 67% 0.0 mm
12:26 9.7 °C 4.0 °C 997.9 hPa West 48.9 km/h 48.9 km/h 66% 0.0 mm
12:34 9.8 °C 4.0 °C 997.9 hPa WSW 49.7 km/h 51.5 km/h 66% 0.0 mm
12:40 9.7 °C 4.0 °C 997.9 hPa West 49.2 km/h 51.8 km/h 66% 0.0 mm
12:46 9.7 °C 4.0 °C 997.9 hPa West 21.2 km/h 49.2 km/h 66% 0.0 mm
12:57 9.8 °C 4.0 °C 997.9 hPa West 17.7 km/h 46.5 km/h 66% 0.0 mm
13:02 9.9 °C 5.0 °C 997.9 hPa West 33.8 km/h 45.7 km/h 68% 0.0 mm
13:06 9.8 °C 4.0 °C 997.9 hPa West 41.0 km/h 41.0 km/h 68% 0.0 mm
13:10 9.8 °C 4.0 °C 997.9 hPa West 29.1 km/h 44.6 km/h 69% 0.0 mm
13:12 9.8 °C 5.0 °C 997.9 hPa West 37.0 km/h 44.6 km/h 70% 0.0 mm
13:17 9.8 °C 5.0 °C 997.9 hPa WSW 30.6 km/h 51.8 km/h 70% 0.0 mm
13:24 9.7 °C 4.0 °C 997.9 hPa WSW 36.7 km/h 49.2 km/h 69% 0.0 mm
13:29 9.7 °C 5.0 °C 998.9 hPa West 27.0 km/h 46.0 km/h 71% 0.0 mm
13:31 9.7 °C 5.0 °C 998.9 hPa WSW 28.0 km/h 42.5 km/h 71% 0.0 mm
13:36 9.7 °C 5.0 °C 998.9 hPa WNW 33.5 km/h 42.8 km/h 70% 0.0 mm
13:41 9.7 °C 5.0 °C 997.9 hPa West 39.3 km/h 43.6 km/h 70% 0.0 mm
13:43 9.7 °C 5.0 °C 997.9 hPa West 42.5 km/h 43.6 km/h 70% 0.0 mm
13:48 9.8 °C 5.0 °C 997.9 hPa West 28.5 km/h 44.6 km/h 71% 0.0 mm
13:49 9.8 °C 5.0 °C 997.9 hPa WNW 39.6 km/h 44.6 km/h 71% 0.0 mm
13:53 9.9 °C 5.0 °C 997.9 hPa West 36.4 km/h 44.6 km/h 71% 0.0 mm
13:55 9.9 °C 5.0 °C 997.9 hPa West 28.5 km/h 44.2 km/h 71% 0.0 mm
14:00 9.9 °C 5.0 °C 999.9 hPa West 34.6 km/h 44.6 km/h 70% 0.0 mm
14:04 10.0 °C 5.0 °C 999.9 hPa WSW 25.9 km/h 52.6 km/h 71% 0.0 mm
14:09 10.0 °C 5.0 °C 999.9 hPa WSW 33.1 km/h 52.6 km/h 71% 0.0 mm
14:14 10.0 °C 5.0 °C 998.9 hPa West 35.2 km/h 49.2 km/h 71% 0.0 mm
14:17 10.0 °C 5.0 °C 998.9 hPa West 32.3 km/h 49.2 km/h 71% 0.0 mm
14:19 10.0 °C 6.0 °C 998.9 hPa WSW 37.5 km/h 49.2 km/h 72% 0.0 mm
14:24 10.0 °C 6.0 °C 998.9 hPa WSW 33.1 km/h 49.7 km/h 72% 0.0 mm
14:29 10.1 °C 5.0 °C 998.9 hPa West 43.9 km/h 49.7 km/h 71% 0.0 mm
14:31 10.1 °C 5.0 °C 998.9 hPa West 23.8 km/h 49.7 km/h 71% 0.0 mm
14:32 10.2 °C 6.0 °C 998.9 hPa WSW 31.7 km/h 49.7 km/h 72% 0.0 mm
14:37 10.2 °C 6.0 °C 998.9 hPa West 41.0 km/h 48.6 km/h 72% 0.0 mm
14:42 10.1 °C 5.0 °C 998.9 hPa West 38.1 km/h 43.1 km/h 71% 0.0 mm
14:45 10.1 °C 5.0 °C 998.9 hPa West 36.4 km/h 48.9 km/h 71% 0.0 mm
14:46 10.1 °C 5.0 °C 998.9 hPa West 30.2 km/h 48.9 km/h 71% 0.0 mm
14:50 10.2 °C 6.0 °C 998.9 hPa West 33.5 km/h 48.9 km/h 72% 0.0 mm
14:55 10.2 °C 6.0 °C 998.9 hPa West 31.7 km/h 53.6 km/h 71% 0.0 mm
15:00 10.1 °C 6.0 °C 998.9 hPa West 43.6 km/h 53.6 km/h 72% 0.0 mm
15:01 10.1 °C 6.0 °C 998.9 hPa West 24.8 km/h 53.6 km/h 72% 0.0 mm
15:02 10.1 °C 6.0 °C 998.9 hPa West 38.5 km/h 53.6 km/h 72% 0.0 mm
15:07 10.1 °C 6.0 °C 998.9 hPa WNW 19.5 km/h 48.6 km/h 72% 0.0 mm
15:09 10.1 °C 5.0 °C 998.9 hPa West 36.4 km/h 56.5 km/h 71% 0.0 mm
15:14 10.1 °C 6.0 °C 999.9 hPa WSW 35.6 km/h 56.5 km/h 72% 0.0 mm
15:15 10.1 °C 6.0 °C 999.9 hPa West 42.8 km/h 56.5 km/h 73% 0.0 mm
15:17 10.1 °C 6.0 °C 999.9 hPa WSW 36.4 km/h 56.5 km/h 72% 0.0 mm
15:25 10.1 °C 6.0 °C 999.9 hPa West 37.5 km/h 52.9 km/h 72% 0.0 mm
15:27 10.1 °C 6.0 °C 1000.9 hPa West 24.5 km/h 52.9 km/h 72% 0.0 mm
15:32 10.1 °C 6.0 °C 1000.9 hPa WNW 37.8 km/h 49.2 km/h 72% 0.0 mm
15:35 10.1 °C 6.0 °C 1000.9 hPa WSW 37.8 km/h 49.2 km/h 72% 0.0 mm
15:38 10.0 °C 6.0 °C 1000.9 hPa WSW 32.8 km/h 45.7 km/h 72% 0.0 mm
15:40 10.0 °C 6.0 °C 1000.9 hPa West 35.2 km/h 42.2 km/h 73% 0.0 mm
15:45 10.0 °C 6.0 °C 1000.9 hPa West 28.8 km/h 42.2 km/h 73% 0.0 mm
15:46 10.0 °C 6.0 °C 1000.9 hPa West 26.2 km/h 42.2 km/h 73% 0.0 mm
15:51 10.0 °C 6.0 °C 1000.9 hPa WSW 36.0 km/h 46.5 km/h 73% 0.0 mm
15:57 10.0 °C 6.0 °C 999.9 hPa West 38.9 km/h 46.5 km/h 72% 0.0 mm
16:00 10.0 °C 6.0 °C 999.9 hPa SW 43.9 km/h 45.1 km/h 73% 0.0 mm
16:04 10.0 °C 6.0 °C 999.9 hPa West 30.9 km/h 44.6 km/h 73% 0.0 mm
16:09 9.9 °C 6.0 °C 999.9 hPa West 28.0 km/h 47.5 km/h 74% 0.0 mm
16:13 9.8 °C 6.0 °C 1000.9 hPa WSW 27.4 km/h 47.9 km/h 74% 0.0 mm
16:18 9.7 °C 6.0 °C 1000.9 hPa West 40.4 km/h 47.9 km/h 74% 0.0 mm
16:20 9.7 °C 6.0 °C 1000.9 hPa WSW 32.8 km/h 47.9 km/h 74% 0.0 mm
16:24 9.7 °C 6.0 °C 1000.9 hPa WSW 20.1 km/h 46.5 km/h 74% 0.0 mm
16:29 9.7 °C 6.0 °C 1000.9 hPa WSW 30.9 km/h 45.1 km/h 74% 0.0 mm
16:32 9.7 °C 6.0 °C 1000.9 hPa West 20.1 km/h 45.1 km/h 74% 0.0 mm
16:37 9.7 °C 6.0 °C 1000.9 hPa WSW 31.7 km/h 38.5 km/h 74% 0.0 mm
16:41 9.7 °C 6.0 °C 1000.9 hPa WSW 21.2 km/h 36.0 km/h 74% 0.0 mm
16:42 9.7 °C 6.0 °C 1000.9 hPa WSW 29.9 km/h 36.0 km/h 74% 0.0 mm
16:46 9.7 °C 6.0 °C 1000.9 hPa WSW 36.4 km/h 40.7 km/h 74% 0.0 mm
16:51 9.6 °C 6.0 °C 1000.9 hPa WSW 28.0 km/h 40.7 km/h 75% 0.0 mm
16:53 9.6 °C 6.0 °C 1000.9 hPa WSW 24.5 km/h 40.7 km/h 74% 0.0 mm
16:54 9.6 °C 6.0 °C 1000.9 hPa WSW 21.2 km/h 37.8 km/h 75% 0.0 mm
16:59 9.6 °C 6.0 °C 1000.9 hPa WSW 35.6 km/h 39.6 km/h 75% 0.0 mm
17:01 9.6 °C 6.0 °C 1000.9 hPa WSW 28.5 km/h 39.6 km/h 75% 0.0 mm
17:07 9.6 °C 6.0 °C 1000.9 hPa West 22.7 km/h 40.7 km/h 75% 0.0 mm
17:09 9.6 °C 6.0 °C 1000.9 hPa West 28.8 km/h 40.7 km/h 75% 0.0 mm
17:13 9.5 °C 6.0 °C 1000.9 hPa WSW 32.0 km/h 40.7 km/h 75% 0.0 mm
17:18 9.5 °C 6.0 °C 1000.9 hPa WSW 31.7 km/h 43.1 km/h 75% 0.0 mm
17:23 9.4 °C 6.0 °C 1000.9 hPa West 21.2 km/h 43.1 km/h 75% 0.0 mm
17:26 9.4 °C 6.0 °C 1000.9 hPa West 28.5 km/h 39.6 km/h 75% 0.0 mm
17:32 9.4 °C 6.0 °C 1000.9 hPa WSW 27.7 km/h 39.6 km/h 75% 0.0 mm
17:37 9.3 °C 6.0 °C 1000.9 hPa WSW 37.0 km/h 38.5 km/h 75% 0.0 mm
17:42 9.3 °C 6.0 °C 1000.9 hPa WSW 20.9 km/h 38.1 km/h 75% 0.0 mm
17:47 9.2 °C 6.0 °C 1000.9 hPa WSW 27.7 km/h 38.1 km/h 75% 0.0 mm
17:48 9.2 °C 6.0 °C 1000.9 hPa WSW 21.2 km/h 38.1 km/h 75% 0.0 mm
17:52 9.2 °C 6.0 °C 1000.9 hPa WSW 24.8 km/h 38.1 km/h 75% 0.0 mm
17:57 9.1 °C 5.0 °C 1000.9 hPa WSW 33.1 km/h 37.8 km/h 76% 0.0 mm
17:58 9.1 °C 5.0 °C 1000.9 hPa WSW 31.4 km/h 37.8 km/h 76% 0.0 mm
18:03 9.2 °C 6.0 °C 1000.9 hPa WSW 28.0 km/h 40.7 km/h 75% 0.0 mm
18:12 9.1 °C 5.0 °C 1000.9 hPa WSW 27.0 km/h 39.3 km/h 75% 0.0 mm
18:17 9.1 °C 5.0 °C 1000.9 hPa WSW 17.2 km/h 39.3 km/h 75% 0.0 mm
18:22 9.1 °C 5.0 °C 1000.9 hPa WSW 28.5 km/h 36.7 km/h 75% 0.0 mm
18:26 9.0 °C 5.0 °C 1001.9 hPa WSW 29.1 km/h 36.4 km/h 75% 0.0 mm
18:31 9.0 °C 5.0 °C 1001.9 hPa WSW 27.7 km/h 39.3 km/h 74% 0.0 mm
18:32 9.0 °C 5.0 °C 1001.9 hPa WSW 25.6 km/h 39.3 km/h 74% 0.0 mm
18:38 9.1 °C 5.0 °C 1001.9 hPa West 31.7 km/h 39.3 km/h 74% 0.0 mm
18:44 8.9 °C 5.0 °C 1000.9 hPa WSW 16.6 km/h 39.3 km/h 75% 0.0 mm
18:46 8.9 °C 5.0 °C 1000.9 hPa West 23.3 km/h 39.3 km/h 75% 0.0 mm
18:51 8.8 °C 5.0 °C 1000.9 hPa WSW 35.6 km/h 40.4 km/h 75% 0.0 mm
18:53 8.8 °C 5.0 °C 1000.9 hPa WSW 37.0 km/h 40.4 km/h 75% 0.0 mm
18:54 8.8 °C 5.0 °C 1000.9 hPa WSW 32.8 km/h 40.4 km/h 75% 0.0 mm
18:59 8.8 °C 5.0 °C 1000.9 hPa West 24.8 km/h 40.4 km/h 75% 0.0 mm
19:01 8.9 °C 5.0 °C 1000.9 hPa WSW 25.6 km/h 38.9 km/h 75% 0.0 mm
19:06 9.0 °C 5.0 °C 1000.9 hPa West 37.8 km/h 42.8 km/h 74% 0.0 mm
19:09 8.9 °C 5.0 °C 1000.9 hPa WSW 24.5 km/h 42.8 km/h 75% 0.0 mm
19:14 8.9 °C 5.0 °C 1000.9 hPa West 24.8 km/h 42.8 km/h 75% 0.0 mm
19:19 9.0 °C 5.0 °C 1000.9 hPa WSW 32.0 km/h 38.5 km/h 74% 0.0 mm
19:22 9.0 °C 5.0 °C 1000.9 hPa West 27.7 km/h 39.6 km/h 74% 0.0 mm
19:27 9.0 °C 5.0 °C 1000.9 hPa West 28.0 km/h 39.6 km/h 74% 0.0 mm
19:29 9.0 °C 5.0 °C 1000.9 hPa WSW 22.4 km/h 39.6 km/h 74% 0.0 mm
19:32 9.0 °C 5.0 °C 1000.9 hPa WSW 30.9 km/h 35.2 km/h 74% 0.0 mm
19:37 9.0 °C 5.0 °C 1000.9 hPa West 28.0 km/h 35.6 km/h 75% 0.0 mm
19:40 9.1 °C 5.0 °C 1000.9 hPa WSW 28.0 km/h 35.6 km/h 75% 0.0 mm
19:45 9.2 °C 6.0 °C 1001.9 hPa WSW 38.9 km/h 43.9 km/h 75% 0.0 mm
19:48 9.2 °C 6.0 °C 1001.9 hPa WSW 17.2 km/h 43.9 km/h 75% 0.0 mm
19:54 9.2 °C 6.0 °C 1001.9 hPa WSW 36.7 km/h 43.9 km/h 75% 0.0 mm
19:57 9.3 °C 6.0 °C 1001.9 hPa WSW 22.7 km/h 41.4 km/h 75% 0.0 mm
20:02 9.2 °C 6.0 °C 1001.9 hPa WSW 27.4 km/h 41.4 km/h 75% 0.0 mm
20:04 9.2 °C 6.0 °C 1001.9 hPa West 36.0 km/h 41.0 km/h 75% 0.0 mm
20:09 9.2 °C 6.0 °C 1001.9 hPa West 20.9 km/h 37.0 km/h 75% 0.0 mm
20:13 9.2 °C 6.0 °C 1001.9 hPa West 29.9 km/h 37.0 km/h 75% 0.0 mm
20:19 9.1 °C 5.0 °C 1001.9 hPa WSW 20.1 km/h 37.5 km/h 76% 0.0 mm
20:20 9.1 °C 5.0 °C 1001.9 hPa WSW 20.9 km/h 37.5 km/h 76% 0.0 mm
20:25 9.1 °C 5.0 °C 1001.9 hPa West 19.8 km/h 34.3 km/h 76% 0.0 mm
20:28 9.1 °C 5.0 °C 1001.9 hPa West 28.5 km/h 28.8 km/h 76% 0.0 mm
20:29 9.1 °C 5.0 °C 1001.9 hPa West 43.9 km/h 43.9 km/h 76% 0.0 mm
20:33 9.2 °C 6.0 °C 1001.9 hPa WSW 30.9 km/h 44.2 km/h 76% 0.0 mm
20:38 9.2 °C 6.0 °C 1001.9 hPa WSW 17.2 km/h 44.2 km/h 76% 0.0 mm
20:40 9.1 °C 5.0 °C 1001.9 hPa WSW 20.6 km/h 41.0 km/h 76% 0.0 mm
20:41 9.1 °C 5.0 °C 1001.9 hPa WSW 17.7 km/h 41.0 km/h 76% 0.0 mm
20:46 9.1 °C 5.0 °C 1001.9 hPa WSW 21.2 km/h 41.0 km/h 76% 0.0 mm
20:52 9.2 °C 6.0 °C 1001.9 hPa West 31.4 km/h 37.5 km/h 76% 0.0 mm
20:57 9.1 °C 5.0 °C 1001.9 hPa West 20.9 km/h 37.5 km/h 76% 0.0 mm
20:58 9.1 °C 5.0 °C 1001.9 hPa WSW 36.0 km/h 43.6 km/h 76% 0.0 mm
20:59 9.1 °C 5.0 °C 1001.9 hPa West 23.3 km/h 43.6 km/h 76% 0.0 mm
21:05 9.2 °C 6.0 °C 1001.9 hPa WSW 34.6 km/h 43.6 km/h 76% 0.0 mm
21:10 9.2 °C 6.0 °C 1001.9 hPa West 17.7 km/h 36.7 km/h 76% 0.0 mm
21:15 9.2 °C 6.0 °C 1001.9 hPa WSW 17.7 km/h 41.0 km/h 76% 0.0 mm
21:20 9.2 °C 6.0 °C 1001.9 hPa WSW 24.8 km/h 41.0 km/h 76% 0.0 mm
21:25 9.1 °C 5.0 °C 1001.9 hPa WSW 25.9 km/h 36.7 km/h 76% 0.0 mm
21:28 9.1 °C 5.0 °C 1001.9 hPa West 19.5 km/h 36.7 km/h 76% 0.0 mm
21:33 9.1 °C 6.0 °C 1001.9 hPa West 30.9 km/h 36.7 km/h 77% 0.0 mm
21:34 9.1 °C 6.0 °C 1001.9 hPa WSW 28.0 km/h 36.7 km/h 77% 0.0 mm
21:38 9.1 °C 6.0 °C 1001.9 hPa West 24.5 km/h 32.0 km/h 77% 0.0 mm
21:44 9.1 °C 6.0 °C 1001.9 hPa WSW 15.8 km/h 27.7 km/h 77% 0.0 mm
21:48 9.1 °C 5.0 °C 1001.9 hPa West 21.2 km/h 37.5 km/h 76% 0.0 mm
21:53 9.1 °C 5.0 °C 1001.9 hPa West 20.6 km/h 37.5 km/h 76% 0.0 mm
21:54 9.2 °C 6.0 °C 1001.9 hPa West 24.8 km/h 37.5 km/h 76% 0.0 mm
21:55 9.2 °C 6.0 °C 1001.9 hPa West 24.8 km/h 37.5 km/h 76% 0.0 mm
22:01 9.2 °C 6.0 °C 1001.9 hPa West 20.9 km/h 37.0 km/h 76% 0.0 mm
22:02 9.2 °C 6.0 °C 1001.9 hPa West 24.5 km/h 37.0 km/h 76% 0.0 mm
22:07 9.2 °C 6.0 °C 1001.9 hPa West 31.4 km/h 36.4 km/h 75% 0.0 mm
22:08 9.2 °C 6.0 °C 1001.9 hPa WSW 23.8 km/h 36.4 km/h 75% 0.0 mm
22:13 9.2 °C 6.0 °C 1001.9 hPa WSW 20.6 km/h 36.4 km/h 75% 0.0 mm
22:17 9.1 °C 5.0 °C 1001.9 hPa WSW 20.6 km/h 30.2 km/h 75% 0.0 mm
22:22 9.0 °C 5.0 °C 1001.9 hPa WSW 23.8 km/h 27.0 km/h 76% 0.0 mm
22:23 9.0 °C 5.0 °C 1001.9 hPa WSW 17.7 km/h 27.0 km/h 76% 0.0 mm
22:28 8.9 °C 5.0 °C 1001.9 hPa West 19.1 km/h 27.0 km/h 76% 0.0 mm
22:33 8.8 °C 6.0 °C 1001.9 hPa West 20.1 km/h 27.7 km/h 77% 0.0 mm
22:42 8.7 °C 5.0 °C 1001.9 hPa WSW 13.7 km/h 27.4 km/h 77% 0.0 mm
22:44 8.7 °C 5.0 °C 1001.9 hPa WSW 24.5 km/h 27.4 km/h 77% 0.0 mm
22:49 8.7 °C 5.0 °C 1001.9 hPa West 14.0 km/h 29.1 km/h 77% 0.0 mm
22:51 8.7 °C 5.0 °C 1001.9 hPa West 20.1 km/h 29.1 km/h 77% 0.0 mm
22:57 8.6 °C 5.0 °C 1001.9 hPa West 17.2 km/h 29.1 km/h 78% 0.0 mm
23:02 8.5 °C 5.0 °C 1001.9 hPa West 17.7 km/h 24.8 km/h 78% 0.0 mm
23:10 8.5 °C 6.0 °C 1001.9 hPa West 16.9 km/h 25.6 km/h 79% 0.0 mm
23:14 8.6 °C 6.0 °C 1001.9 hPa WSW 21.2 km/h 31.7 km/h 80% 0.0 mm
23:16 8.6 °C 6.0 °C 1001.9 hPa West 19.8 km/h 31.7 km/h 80% 0.0 mm
23:22 8.6 °C 6.0 °C 1001.9 hPa West 12.2 km/h 28.3 km/h 80% 0.0 mm
23:23 8.6 °C 6.0 °C 1001.9 hPa West 26.2 km/h 28.3 km/h 80% 0.0 mm
23:25 8.6 °C 6.0 °C 1001.9 hPa West 15.8 km/h 32.0 km/h 80% 0.0 mm
23:30 8.5 °C 6.0 °C 1001.9 hPa West 20.1 km/h 32.0 km/h 81% 0.0 mm
23:31 8.5 °C 6.0 °C 1001.9 hPa WSW 16.3 km/h 32.0 km/h 81% 0.0 mm
23:36 8.5 °C 6.0 °C 1001.9 hPa West 17.7 km/h 27.4 km/h 81% 0.0 mm
23:41 8.5 °C 6.0 °C 1001.9 hPa West 20.6 km/h 27.4 km/h 81% 0.0 mm
23:46 8.5 °C 6.0 °C 1001.9 hPa West 12.6 km/h 24.5 km/h 81% 0.0 mm
23:51 8.3 °C 6.0 °C 1001.9 hPa WSW 19.5 km/h 21.2 km/h 82% 0.0 mm
23:54 8.4 °C 6.0 °C 1001.9 hPa West 13.0 km/h 22.7 km/h 82% 0.0 mm
23:57 8.3 °C 6.0 °C 1000.9 hPa WSW 17.2 km/h 22.7 km/h 82% 0.0 mm
Données Historique de Météo Turbie

Mise a jour : 22/05/2018 19:56:12
Généré par Cumulus 1.9.4 (1099)